Wetbulb
68.82 70.25 70.12 69.90 70.30 70.01 70.73 70.11 69.63 70.15 70.15 70.68 69.99 69.77 69.30 71.08 71.63 71.85 70.52 74.99 75.92 76.44 76.74 76.01 75.92 75.63 75.79 76.02 76.06 76.11 76.14 76.39 76.10 75.88 75.67 75.59 74.60 74.55 74.41 74.26 74.04 74.16 74.11
70.39 71.07 69.19 70.12 69.96 71.14 71.56 70.03 69.97 70.01 69.47 69.45 69.27 70.99 71.05 70.47 70.29 71.14 72.22 72.28 76.57 76.68 76.70 76.97 76.30 76.25 76.28 76.28 75.94 76.31 76.02 76.17 75.89 75.59 75.98 74.86 74.38 74.03 73.18 73.05 73.30 73.51 72.84
71.49 69.36 70.46 71.05 71.27 71.28 70.05 70.23 70.29 69.85 69.65 69.73 67.32 70.01 70.53 71.39 70.78 69.29 70.24 72.21 73.39 77.09 76.72 76.53 77.36 77.24 76.69 76.65 76.48 76.20 76.15 75.70 75.78 75.51 75.49 75.03 74.62 73.49 72.32 72.33 72.52 72.37 72.39
71.28 71.01 69.77 69.77 70.26 69.88 70.40 70.31 69.38 68.27 68.59 67.26 66.95 67.17 68.08 69.68 72.11 70.29 69.82 70.45 72.75 73.77 75.64 77.40 77.39 77.16 76.82 76.80 76.73 75.86 75.71 76.08 75.23 75.81 75.11 74.70 74.55 73.21 71.73 71.62 72.10 72.76 72.55
71.84 71.21 69.85 69.29 69.54 69.59 70.24 68.90 67.92 67.69 66.55 66.80 67.31 67.75 68.13 69.24 70.35 71.57 71.29 70.96 72.04 72.84 72.82 74.73 77.20 77.57 76.64 76.95 76.34 75.94 75.85 76.07 75.86 75.41 75.01 74.38 74.00 72.41 71.67 72.70 72.88 72.47 71.97
71.99 71.40 71.07 70.31 69.76 68.50 67.36 67.38 66.37 67.13 66.62 65.61 68.75 68.68 67.58 68.30 68.45 69.19 69.51 71.93 72.02 71.94 72.33 72.42 73.52 75.18 76.99 77.62 76.91 76.47 75.85 75.82 75.58 75.23 74.91 74.29 73.44 72.59 73.19 73.00 72.50 72.05 71.61
71.23 71.55 71.12 71.53 70.89 68.14 66.24 67.46 66.55 64.71 66.24 65.83 65.72 65.81 65.97 67.04 67.40 70.07 69.72 68.82 70.44 71.00 71.31 71.31 72.64 73.47 73.76 77.22 76.77 76.81 76.31 76.17 75.38 75.11 74.76 74.16 73.27 73.19 73.29 73.20 72.74 71.88 71.71
70.68 70.44 70.40 70.67 70.57 68.46 67.58 67.11 65.82 64.66 65.88 65.69 64.35 63.46 61.42 63.61 66.06 68.69 69.35 68.45 69.28 72.31 72.20 71.09 71.66 72.84 72.52 73.59 74.83 76.82 76.94 76.18 75.60 75.03 74.61 73.62 72.80 72.57 72.91 72.74 72.49 71.75 71.63
70.78 71.10 70.49 69.38 70.99 69.78 66.65 67.04 67.24 66.18 64.20 62.68 64.26 64.68 61.42 60.30 61.32 65.88 68.32 69.05 69.72 70.09 72.51 72.59 72.91 72.70 71.43 70.88 74.94 75.88 76.26 75.90 75.71 75.09 74.50 73.71 72.90 72.30 72.08 72.10 71.62 71.91 71.71
68.79 71.40 70.85 70.83 70.32 70.63 69.42 69.34 69.12 67.68 62.03 59.10 61.92 65.90 63.16 63.89 61.05 60.31 64.61 66.06 66.91 68.09 69.98 69.40 70.92 73.14 72.16 70.77 73.00 75.36 75.98 75.45 75.88 75.76 75.07 74.28 73.54 72.40 71.75 71.66 71.26 71.57 70.94
69.35 69.50 71.61 69.83 70.79 70.18 69.76 70.59 70.38 68.84 65.49 63.80 65.39 65.81 65.45 66.30 65.36 62.98 61.35 62.97 65.48 67.76 68.20 67.78 68.14 70.62 73.31 72.50 73.00 74.54 75.45 75.46 74.90 75.64 75.69 75.36 74.39 73.36 71.81 71.59 71.01 71.29 70.43
69.25 70.57 70.90 70.39 69.86 70.27 69.66 69.40 69.80 69.25 68.56 69.78 69.54 68.82 66.48 65.19 64.18 63.07 62.06 61.49 62.69 64.56 67.21 68.18 68.88 70.08 71.77 73.57 74.48 74.93 75.45 74.96 74.20 74.35 74.82 75.17 75.61 74.51 72.30 71.88 71.07 71.19 70.27
67.15 69.30 70.83 70.42 69.13 70.13 69.98 69.17 69.32 69.37 70.09 69.69 68.72 68.79 69.00 68.07 66.77 65.23 63.54 62.71 62.55 63.42 65.21 67.19 69.19 70.52 71.48 73.68 74.25 75.57 75.36 73.90 73.27 72.32 72.64 73.51 74.69 75.08 74.04 72.72 71.45 71.25 70.89
67.19 68.97 70.62 71.48 70.68 70.50 70.52 69.62 69.99 69.58 69.81 70.69 69.86 69.60 69.06 68.68 67.95 66.60 64.95 64.55 62.81 60.99 62.97 65.13 66.77 67.96 70.14 71.66 73.35 75.24 74.05 72.52 72.02 70.94 70.92 71.53 72.63 72.64 73.19 72.57 72.23 71.97 72.21
68.69 69.26 70.60 71.44 71.69 71.12 70.68 70.29 69.92 69.38 69.78 69.60 69.67 69.37 69.36 69.92 69.18 68.53 67.07 67.46 64.71 61.24 61.52 65.70 65.70 69.54 70.83 71.95 72.29 72.07 73.64 72.25 70.82 70.61 70.05 70.07 70.72 71.41 71.94 71.38 71.46 70.96 71.41
68.64 69.39 70.27 71.18 71.53 71.23 71.11 70.92 70.35 70.25 69.81 69.67 69.53 68.79 68.81 69.16 69.72 69.07 68.40 68.13 66.66 64.26 62.67 65.14 67.86 69.09 70.27 71.66 72.05 71.50 70.91 72.53 70.84 69.68 69.35 69.10 69.64 70.64 70.99 70.65 70.18 70.02 70.14
69.21 69.48 70.17 70.78 71.06 71.21 69.97 70.01 69.65 70.13 69.89 69.49 69.70 69.53 68.89 69.15 69.02 68.98 68.82 68.32 68.14 66.10 63.99 65.24 67.31 68.83 68.56 69.02 70.00 71.70 71.70 71.16 71.69 69.52 69.40 68.68 68.32 69.02 69.79 69.76 69.16 69.01 68.85
69.77 68.94 69.24 69.64 69.63 69.15 67.81 67.42 67.23 68.87 69.24 69.24 69.64 69.08 68.50 70.98 69.37 69.04 68.64 67.78 67.83 67.74 65.96 64.56 66.17 68.09 68.69 69.46 69.52 69.66 70.95 71.46 69.44 69.66 68.73 68.30 67.51 67.49 67.83 67.83 67.56 66.98 66.60
70.05 69.22 68.43 67.98 67.53 67.27 66.93 66.71 66.50 66.72 68.02 69.31 69.46 68.95 68.45 68.47 68.07 68.28 68.79 68.95 68.05 68.73 67.62 67.04 66.59 67.74 68.41 69.00 68.60 69.07 70.21 70.05 72.14 71.05 67.99 67.51 67.01 66.88 66.41 65.95 65.66 64.59 63.33
70.34 69.58 69.02 68.70 68.52 68.01 67.29 67.00 66.97 66.80 67.68 69.29 69.99 69.62 69.33 68.95 68.78 68.63 68.68 68.79 68.53 67.65 66.90 66.63 66.38 66.47 67.51 68.16 67.58 67.09 67.45 68.68 69.20 71.84 71.43 68.98 67.96 67.55 66.54 64.95 65.09 64.47 61.78
70.10 70.85 69.65 69.47 68.90 68.56 68.87 68.03 68.21 68.00 67.89 68.27 69.84 70.47 70.23 70.61 70.22 69.46 69.92 68.97 68.28 67.96 67.35 66.51 65.56 65.39 65.76 66.12 66.39 66.98 66.31 66.75 67.49 68.53 69.39 69.36 68.48 68.64 68.39 65.92 67.94 66.97 62.70
70.18 70.14 70.36 70.62 69.82 70.45 67.49 66.89 68.94 69.45 70.29 70.25 69.49 70.28 70.95 69.90 70.05 68.29 67.94 68.59 68.70 67.78 67.42 66.76 66.45 65.84 66.71 67.31 67.47 66.52 66.52 65.30 64.05 67.76 68.12 68.41 68.43 67.71 68.23 68.37 67.17 65.35 62.80
71.27 71.20 71.11 70.44 70.44 70.17 66.11 66.31 68.07 70.70 70.80 70.28 70.30 70.17 70.09 71.86 69.98 70.99 67.72 66.63 66.59 66.45 67.78 67.78 66.81 66.82 66.57 67.92 67.78 67.11 66.52 65.84 65.85 66.79 67.89 67.01 67.35 67.30 67.30 66.83 64.66 63.72 61.65
69.47 70.34 70.79 70.69 70.78 69.88 64.52 64.69 66.84 68.80 69.29 68.50 69.27 69.81 69.65 69.92 69.89 69.67 68.75 68.44 68.14 67.81 67.40 67.33 67.21 68.14 67.96 68.50 67.56 68.10 67.54 67.15 67.22 67.22 68.14 65.63 66.28 66.40 64.31 65.72 63.77 63.08 61.11
69.50 69.40 70.17 70.23 69.92 69.88 63.11 62.56 64.65 67.94 67.85 67.96 68.89 68.23 68.82 68.12 62.16 62.30 66.43 65.65 65.13 64.85 65.02 62.33 61.93 61.72 61.53 61.96 63.68 66.65 66.47 66.81 65.06 66.72 68.23 67.19 63.59 61.44 60.33 61.76 63.68 63.36 60.89
69.67 69.27 69.77 69.81 67.99 69.94 60.21 59.85 63.65 67.92 66.47 65.83 65.47 64.41 60.45 62.76 58.72 58.74 64.39 64.41 63.28 62.61 61.00 61.54 61.53 61.43 62.09 63.90 64.10 65.15 65.95 65.29 65.97 64.87 67.35 66.10 60.51 59.04 57.63 57.05 58.86 60.65 59.72
MSLP
1018.59 1018.30 1018.65 1018.91 1019.04 1018.87 1018.67 1018.58 1018.47 1018.30 1018.03 1018.16 1018.33 1018.56 1018.88 1018.98 1018.77 1018.72 1019.00 1019.12 1019.42 1019.61 1019.69 1019.74 1019.90 1020.09 1020.29 1020.34 1020.35 1020.29 1020.23 1020.20 1020.18 1020.16 1020.22 1020.35 1020.53 1020.48 1020.48 1020.52 1020.50 1020.49 1020.42
1018.08 1017.84 1018.32 1018.66 1018.85 1018.57 1018.64 1018.47 1018.28 1017.99 1017.91 1017.91 1018.48 1018.64 1018.74 1018.70 1018.52 1018.59 1018.74 1019.05 1019.22 1019.45 1019.66 1019.71 1019.71 1019.86 1020.01 1020.12 1020.26 1020.21 1020.06 1020.13 1020.16 1020.08 1020.16 1020.44 1020.57 1020.59 1020.65 1020.62 1020.64 1020.68 1020.66
1017.74 1017.89 1018.01 1018.24 1018.43 1018.81 1018.87 1018.83 1018.58 1018.18 1018.21 1018.39 1018.82 1018.76 1018.67 1018.56 1018.33 1018.63 1018.77 1019.13 1019.41 1019.38 1019.42 1019.49 1019.56 1019.67 1019.87 1019.92 1019.94 1020.14 1020.11 1020.14 1020.15 1020.15 1020.22 1020.43 1020.47 1020.70 1020.82 1020.74 1020.72 1020.86 1020.96
1017.82 1018.00 1017.98 1018.24 1018.80 1018.85 1019.05 1018.92 1018.69 1018.70 1018.70 1018.76 1018.96 1018.80 1018.43 1018.30 1018.57 1018.82 1018.91 1018.96 1019.18 1019.36 1019.30 1019.34 1019.46 1019.53 1019.64 1019.69 1019.78 1019.86 1019.99 1020.05 1020.04 1020.13 1020.29 1020.41 1020.55 1020.75 1020.91 1020.92 1020.89 1021.05 1021.15
1017.85 1017.95 1018.11 1018.54 1019.08 1019.09 1019.04 1018.93 1018.68 1018.84 1019.04 1018.80 1018.80 1018.70 1018.77 1018.63 1018.74 1018.65 1018.79 1018.82 1018.87 1019.07 1019.23 1019.24 1019.28 1019.37 1019.46 1019.47 1019.65 1019.62 1019.78 1019.81 1020.09 1020.25 1020.26 1020.33 1020.51 1020.81 1021.00 1021.03 1021.05 1021.23 1021.31
1017.80 1017.81 1018.17 1018.60 1018.98 1018.90 1019.15 1019.21 1019.52 1019.45 1019.48 1019.48 1019.54 1019.29 1019.16 1018.78 1018.78 1018.84 1018.77 1018.66 1018.65 1018.77 1018.94 1019.12 1019.17 1019.19 1019.19 1019.23 1019.42 1019.49 1019.58 1019.74 1019.97 1020.19 1020.32 1020.42 1020.55 1020.72 1020.90 1021.02 1021.15 1021.32 1021.36
1017.72 1017.86 1018.07 1018.43 1018.76 1018.89 1019.14 1019.62 1019.77 1019.83 1019.62 1019.77 1019.91 1019.78 1019.26 1018.83 1018.71 1018.76 1018.78 1018.89 1018.69 1018.62 1018.77 1018.86 1018.97 1019.11 1019.20 1019.23 1019.34 1019.44 1019.46 1019.60 1019.73 1019.88 1020.14 1020.43 1020.66 1020.78 1020.85 1020.91 1021.04 1021.28 1021.45
1017.70 1017.79 1017.84 1018.27 1018.53 1018.76 1019.32 1019.66 1019.59 1020.02 1019.71 1019.76 1019.81 1019.91 1019.80 1019.37 1018.84 1018.91 1018.92 1018.77 1018.78 1018.75 1018.79 1018.73 1018.92 1018.85 1018.96 1019.20 1019.21 1019.45 1019.54 1019.53 1019.53 1019.74 1019.93 1020.24 1020.50 1020.78 1020.93 1020.95 1021.00 1021.07 1021.28
1017.51 1017.59 1017.71 1017.77 1018.17 1018.57 1018.69 1019.13 1019.36 1019.35 1019.69 1019.80 1019.59 1019.57 1019.97 1019.88 1019.60 1019.21 1018.83 1018.67 1018.77 1018.83 1018.80 1018.79 1018.51 1018.63 1018.87 1019.04 1018.94 1019.13 1019.36 1019.58 1019.66 1019.68 1019.79 1020.01 1020.33 1020.66 1020.80 1020.85 1020.91 1021.05 1021.24
1017.38 1017.52 1017.69 1017.68 1017.91 1018.17 1018.51 1018.55 1018.73 1018.89 1019.11 1019.42 1019.51 1019.50 1019.64 1019.68 1019.87 1019.65 1019.02 1018.81 1018.72 1018.66 1018.67 1018.43 1018.17 1018.16 1018.49 1018.79 1018.56 1018.71 1018.88 1018.96 1019.36 1019.54 1019.72 1019.88 1020.10 1020.38 1020.64 1020.79 1020.85 1020.86 1020.98
1017.18 1017.34 1017.50 1017.88 1017.82 1018.00 1018.21 1018.36 1018.56 1018.69 1018.83 1019.34 1019.42 1019.53 1019.56 1019.55 1019.80 1019.70 1019.53 1019.07 1018.69 1017.93 1017.99 1018.25 1018.17 1018.05 1018.21 1018.43 1017.97 1018.14 1018.48 1018.56 1018.78 1019.12 1019.44 1019.62 1019.89 1020.16 1020.27 1020.40 1020.57 1020.80 1020.91
1017.02 1017.21 1017.32 1017.53 1017.78 1017.94 1018.24 1018.25 1018.36 1018.45 1018.57 1018.89 1018.93 1019.14 1019.36 1019.42 1019.47 1019.45 1019.74 1019.07 1018.72 1017.97 1017.87 1017.90 1017.75 1017.69 1017.87 1017.83 1017.72 1017.73 1018.09 1018.36 1018.58 1018.72 1019.13 1019.39 1019.60 1019.85 1019.99 1020.04 1020.18 1020.38 1020.65
1016.74 1016.65 1016.84 1017.25 1017.65 1017.61 1017.81 1017.94 1018.16 1018.24 1018.36 1018.46 1018.61 1018.80 1018.84 1019.01 1019.04 1019.13 1019.31 1019.03 1018.83 1018.20 1018.08 1017.69 1017.52 1017.32 1017.35 1017.34 1017.36 1017.41 1017.61 1017.82 1018.14 1018.42 1018.74 1019.01 1019.28 1019.55 1019.70 1019.73 1019.86 1020.06 1020.25
1016.32 1016.33 1016.51 1016.61 1016.90 1017.23 1017.46 1017.67 1017.92 1017.96 1018.01 1018.16 1018.27 1018.50 1018.57 1018.57 1018.75 1018.81 1018.94 1019.01 1019.03 1018.72 1018.41 1017.95 1017.46 1017.10 1016.97 1016.97 1016.96 1017.00 1017.13 1017.36 1017.58 1017.89 1018.24 1018.54 1018.77 1018.92 1019.24 1019.48 1019.65 1019.78 1019.93
1015.91 1016.06 1016.10 1016.51 1016.47 1016.79 1016.96 1017.41 1017.72 1017.80 1017.84 1017.83 1017.94 1018.12 1018.31 1018.32 1018.43 1018.40 1018.46 1018.56 1018.80 1019.04 1018.67 1017.79 1017.48 1016.66 1016.65 1016.66 1016.65 1016.65 1016.63 1016.67 1017.03 1017.25 1017.53 1017.88 1018.27 1018.56 1018.82 1019.08 1019.34 1019.59 1019.72
1015.51 1015.72 1015.91 1016.13 1016.34 1016.41 1016.64 1017.03 1017.33 1017.39 1017.51 1017.56 1017.60 1017.84 1017.89 1017.88 1017.97 1018.07 1018.02 1018.02 1018.35 1018.47 1018.50 1017.80 1017.17 1016.61 1016.28 1016.33 1016.45 1016.60 1016.64 1016.59 1016.59 1016.65 1016.72 1017.01 1017.52 1017.93 1018.27 1018.64 1018.92 1019.15 1019.36
1014.92 1015.22 1015.45 1015.69 1015.97 1016.17 1016.39 1016.72 1016.90 1017.09 1017.21 1017.29 1017.38 1017.43 1017.35 1017.42 1017.66 1017.71 1017.71 1017.81 1018.03 1018.20 1018.33 1017.65 1017.31 1016.67 1016.52 1016.28 1016.19 1016.21 1016.24 1016.16 1016.04 1016.23 1016.35 1016.60 1016.99 1017.39 1017.62 1017.97 1018.36 1018.64 1018.90
1014.56 1014.84 1014.99 1015.33 1015.60 1015.72 1016.10 1016.40 1016.60 1016.74 1016.95 1017.10 1017.07 1017.16 1017.03 1017.05 1017.21 1017.31 1017.56 1017.73 1017.81 1017.76 1018.05 1017.81 1017.31 1016.83 1016.59 1016.27 1016.12 1016.07 1015.68 1015.51 1015.57 1015.50 1015.67 1016.02 1016.34 1016.67 1016.88 1017.21 1017.60 1018.03 1018.37
1014.23 1014.60 1015.00 1015.09 1015.35 1015.40 1015.71 1015.90 1016.16 1016.37 1016.46 1016.40 1016.48 1016.69 1016.60 1016.71 1016.92 1016.88 1017.01 1017.28 1017.39 1017.27 1017.38 1017.42 1017.20 1016.80 1016.43 1016.15 1016.02 1015.80 1015.54 1015.19 1014.98 1014.71 1014.86 1015.02 1015.28 1015.58 1015.86 1016.38 1016.95 1017.31 1017.64
1013.81 1014.20 1014.42 1014.68 1014.92 1015.14 1015.19 1015.51 1015.67 1015.92 1016.01 1015.85 1015.83 1016.01 1016.16 1016.25 1016.25 1016.32 1016.41 1016.57 1016.74 1016.96 1017.08 1017.05 1016.89 1016.69 1016.45 1015.89 1015.97 1015.96 1015.50 1015.05 1014.79 1014.37 1014.42 1014.70 1014.89 1015.09 1015.36 1015.62 1015.87 1016.38 1016.92
1013.13 1013.41 1013.90 1014.20 1014.47 1014.69 1014.66 1014.78 1015.08 1015.23 1015.35 1015.36 1015.19 1015.26 1015.44 1015.47 1015.40 1015.45 1015.72 1015.75 1015.99 1016.13 1016.27 1016.48 1016.52 1016.31 1016.07 1015.89 1015.78 1015.33 1015.33 1015.04 1014.58 1014.33 1014.27 1014.25 1014.33 1014.50 1014.70 1015.04 1015.32 1015.66 1016.20
1012.45 1012.90 1013.16 1013.37 1013.69 1013.80 1013.75 1014.04 1014.28 1014.79 1014.71 1014.82 1014.85 1014.62 1014.71 1014.93 1014.88 1014.72 1014.83 1014.81 1015.02 1015.23 1015.41 1015.58 1015.58 1015.64 1015.26 1015.07 1014.88 1014.91 1014.90 1014.93 1014.75 1013.87 1014.19 1014.03 1014.09 1014.20 1014.12 1014.39 1014.61 1015.00 1015.41
1011.73 1012.15 1012.57 1012.95 1012.98 1013.12 1013.06 1013.19 1013.53 1013.99 1014.03 1014.03 1014.03 1014.01 1014.30 1014.11 1014.16 1014.22 1014.14 1014.25 1014.33 1014.45 1014.52 1014.72 1014.87 1014.74 1014.63 1014.39 1014.47 1014.36 1014.37 1014.35 1013.88 1013.45 1013.71 1013.74 1013.67 1013.71 1013.61 1013.67 1013.93 1014.28 1014.67
1011.13 1011.46 1011.78 1012.15 1012.33 1012.52 1012.62 1012.82 1013.06 1013.34 1013.49 1013.68 1013.68 1013.63 1013.61 1013.62 1013.80 1013.97 1014.15 1014.16 1014.14 1014.20 1014.37 1014.50 1014.55 1014.36 1014.26 1014.22 1014.27 1014.09 1013.91 1013.74 1013.41 1013.12 1012.97 1013.10 1012.95 1012.95 1013.01 1013.19 1013.31 1013.52 1013.86
1010.48 1010.88 1010.94 1011.33 1011.80 1011.98 1012.28 1012.52 1012.92 1012.96 1013.14 1013.18 1013.27 1013.34 1013.44 1013.49 1013.81 1014.06 1014.27 1014.25 1014.23 1014.30 1014.35 1014.57 1014.45 1014.16 1014.02 1013.97 1013.88 1013.79 1013.44 1013.32 1012.90 1012.50 1012.29 1012.35 1012.26 1012.60 1012.66 1012.68 1012.72 1013.15 1013.42
1009.58 1010.14 1010.54 1010.90 1011.22 1011.68 1012.14 1012.44 1012.67 1012.86 1013.10 1013.27 1013.55 1013.80 1013.83 1013.93 1014.14 1014.18 1014.33 1014.53 1014.72 1014.86 1014.80 1014.55 1014.33 1014.01 1013.72 1013.47 1013.35 1013.34 1013.23 1012.97 1012.76 1012.22 1011.56 1012.07 1012.45 1012.82 1013.22 1012.80 1012.66 1012.70 1013.26
Wind_Speed
3 3 4 4 5 3 3 4 3 2 3 3 1 3 3 1 2 2 1 9 12 12 13 11 10 10 10 10 11 11 11 10 8 8 7 6 4 2 2 2 2 3 5
4 2 5 6 6 5 0 2 3 0 1 2 5 4 1 1 4 3 2 3 11 12 11 12 10 11 11 11 11 11 10 8 9 8 5 4 3 3 2 2 2 3 4
3 5 4 5 7 4 1 2 2 1 3 3 4 2 2 2 3 3 1 1 3 11 12 11 11 10 11 11 11 9 7 9 8 6 4 5 5 3 2 1 2 2 3
3 4 4 4 5 3 4 4 3 2 2 3 3 2 2 4 4 3 2 3 3 4 6 9 10 9 11 11 9 6 9 9 7 8 7 5 5 5 2 3 3 4 5
4 5 4 4 4 4 6 6 4 2 2 4 5 3 2 3 2 4 5 4 5 4 3 7 9 9 10 11 9 8 7 7 7 7 6 5 4 4 3 4 4 4 4
4 5 4 5 5 3 3 2 2 1 2 1 3 5 4 3 3 3 4 5 5 5 5 5 4 4 10 11 10 10 7 7 7 6 6 6 6 5 5 5 4 3 2
4 6 4 6 4 4 3 3 2 4 2 2 1 3 2 4 5 2 1 3 4 5 5 5 4 3 3 11 10 10 11 11 10 9 8 7 7 7 7 7 5 4 3
5 4 5 6 6 4 5 5 4 3 2 3 3 1 1 4 3 0 3 1 4 2 5 6 5 6 5 3 5 10 11 11 11 11 10 9 8 8 8 7 6 6 6
6 5 5 5 6 5 5 5 5 5 4 2 1 2 2 2 2 1 4 3 3 3 4 5 7 6 5 5 5 8 12 9 11 11 11 11 9 9 9 8 7 7 7
6 6 5 5 5 4 5 5 3 2 2 1 1 2 1 2 2 2 1 3 3 4 6 4 4 6 7 5 9 11 12 13 12 13 13 12 12 11 11 10 9 9 9
6 6 5 6 5 4 4 5 3 5 3 3 2 1 1 1 2 2 3 3 2 5 3 4 4 4 5 7 7 9 15 13 14 13 14 14 14 13 13 12 11 11 9
3 5 6 5 5 4 5 5 3 4 5 3 3 3 3 2 2 2 2 4 3 3 3 4 4 4 5 7 9 13 15 13 14 13 13 13 14 15 14 14 13 13 11
4 6 5 5 4 5 5 5 5 4 4 3 4 3 2 3 2 1 1 2 2 2 1 3 4 3 3 4 6 11 14 14 14 13 13 13 13 14 14 14 14 14 13
6 5 6 6 6 6 6 5 3 4 4 4 5 4 3 3 2 2 2 2 3 2 1 4 3 5 4 4 5 8 6 13 14 14 14 13 13 13 13 13 13 13 12
6 6 7 7 7 7 7 6 4 5 5 5 5 5 3 3 3 3 3 3 3 1 3 3 2 3 3 3 5 5 6 9 15 15 15 14 14 12 12 12 12 12 11
7 7 7 8 7 7 7 6 5 5 5 4 4 5 4 3 4 4 3 3 2 3 2 4 3 3 3 3 5 5 6 9 14 16 15 15 15 14 14 13 13 13 13
6 7 8 7 8 8 7 6 6 6 6 5 5 6 6 4 4 3 3 2 3 2 3 4 3 2 3 4 5 4 5 5 4 12 14 13 14 13 15 14 14 14 13
5 7 6 6 6 6 5 6 7 6 6 6 6 6 6 3 6 5 4 5 4 4 4 5 2 2 4 3 5 5 5 5 6 10 15 15 15 15 16 15 15 14 13
6 6 5 7 7 8 7 7 7 7 7 7 7 7 7 6 6 4 5 5 4 4 4 4 4 3 3 2 3 4 5 5 4 9 11 14 16 18 17 16 14 15 14
7 7 7 8 8 8 9 8 9 9 8 7 8 7 7 7 7 7 6 6 5 5 4 4 4 4 4 4 3 4 4 2 4 4 6 6 8 12 15 15 17 16 15
9 8 8 9 8 8 8 9 9 8 7 8 8 8 8 10 12 10 5 6 5 5 4 4 4 2 3 3 4 2 3 3 4 4 2 3 3 4 6 13 14 18 16
8 7 8 9 9 8 11 12 10 9 9 9 8 7 7 9 11 14 13 12 9 6 5 4 4 5 7 4 3 4 4 2 4 3 3 3 4 5 5 7 12 14 17
7 8 7 7 10 9 11 12 12 8 7 8 8 7 6 7 9 8 10 12 10 12 10 3 6 6 5 5 3 4 5 5 6 3 4 3 5 7 6 6 14 16 17
8 8 7 7 7 6 9 11 12 7 6 5 6 7 6 7 6 5 5 5 5 3 3 3 6 7 5 5 4 6 6 6 5 3 4 6 5 5 3 5 14 18 18
6 7 5 8 7 7 9 9 7 5 4 5 4 2 5 2 4 2 4 3 3 3 5 8 8 7 8 8 7 4 7 7 8 6 7 5 4 3 3 4 6 17 18
6 5 6 6 7 5 2 4 3 2 3 2 3 3 10 6 5 5 4 2 2 3 5 6 5 4 5 6 7 4 5 7 7 5 4 6 2 3 3 2 2 4 6
Wind_Direction
228 230 138 123 126 203 215 115 99 4 26 37 265 112 81 35 91 83 182 201 209 238 241 230 231 238 247 251 252 254 254 254 251 252 259 250 226 171 150 182 184 196 200
247 229 142 136 155 194 336 106 136 34 3 7 18 12 185 125 75 76 136 208 214 238 248 243 234 236 244 252 255 251 252 261 258 248 242 236 171 131 152 177 198 225 123
254 126 137 142 177 116 106 168 197 181 333 356 89 97 107 36 77 29 61 231 269 248 241 238 246 240 248 250 252 255 265 258 248 229 193 172 156 164 191 183 197 167 175
121 124 122 128 117 144 169 166 211 287 274 259 85 42 35 350 354 257 257 215 218 255 253 250 253 245 245 246 245 241 248 249 226 162 165 168 194 171 208 216 206 157 123
149 148 142 134 128 176 181 169 199 110 340 334 343 319 309 297 305 269 248 222 208 224 231 245 256 235 239 237 229 215 240 219 192 172 171 175 155 169 196 174 150 145 134
153 132 140 140 155 175 163 159 107 349 253 183 325 310 318 311 307 287 265 233 202 208 218 228 241 239 231 237 218 209 202 172 176 182 191 191 180 186 182 171 169 171 165
212 152 144 142 163 185 166 192 142 179 265 187 59 308 313 301 316 1 35 243 229 223 208 219 223 220 252 244 215 213 208 202 197 194 198 200 200 195 185 176 179 198 205
215 184 158 154 167 174 172 201 189 168 248 193 160 118 16 329 350 264 271 228 244 259 240 230 233 217 207 232 209 220 225 217 209 202 193 200 207 209 206 195 191 201 191
197 211 186 170 158 172 188 188 196 178 178 216 206 137 105 228 8 287 236 218 281 249 249 226 224 220 211 213 214 222 226 225 225 217 205 200 208 218 217 209 200 190 186
192 208 188 179 177 173 183 208 192 192 132 198 336 211 301 140 175 317 271 269 244 223 232 241 239 223 202 209 209 214 222 203 217 221 218 212 210 210 213 212 206 194 189
200 209 204 184 205 181 181 179 173 199 174 142 207 132 252 41 248 141 291 297 285 254 218 221 245 235 213 220 203 210 216 209 209 217 220 215 214 216 212 208 205 206 207
208 207 218 199 203 196 185 204 205 186 204 204 185 178 185 192 213 153 223 278 239 279 228 229 229 224 221 225 223 210 212 216 214 211 219 220 216 219 219 212 207 206 210
228 224 200 201 200 214 202 195 205 216 211 204 191 221 204 211 190 162 166 282 309 312 345 273 256 258 241 209 220 211 216 211 211 213 214 215 219 219 221 220 214 212 212
219 214 204 203 197 213 210 206 208 217 222 223 222 207 206 240 187 176 199 181 325 318 292 250 250 238 216 211 215 223 214 220 215 211 214 217 222 218 210 219 219 217 216
213 208 201 207 202 203 208 196 206 219 218 220 222 218 214 220 227 219 213 193 177 260 288 297 288 254 245 200 228 219 214 220 214 215 211 211 219 216 211 214 214 214 215
205 198 203 201 204 211 206 196 211 216 208 221 219 220 221 228 219 221 240 206 192 185 232 216 261 231 253 243 229 226 238 232 223 222 211 210 212 212 210 214 214 212 212
202 199 201 197 201 209 197 192 215 228 217 220 218 223 238 228 219 217 219 225 223 186 227 296 265 300 265 262 276 235 235 230 228 226 222 218 214 214 214 211 213 214 211
208 207 194 190 205 209 193 195 208 218 220 229 231 226 238 220 235 215 196 219 235 224 201 243 261 277 227 239 254 279 268 229 217 209 209 216 213 218 216 211 210 207 205
203 200 204 205 210 206 197 208 213 217 226 226 226 227 237 213 238 226 212 215 218 218 215 216 252 248 266 245 288 269 257 253 239 238 219 218 216 215 211 210 211 207 200
187 200 204 212 218 216 203 213 208 220 228 230 228 225 234 224 226 229 222 221 219 219 216 230 249 249 245 264 220 249 284 261 263 226 227 218 214 221 215 207 205 202 201
210 203 197 212 216 218 214 203 209 213 222 237 232 224 231 231 230 225 204 236 216 219 210 224 242 248 245 232 216 233 239 260 275 226 229 217 187 195 219 205 214 201 196
205 197 211 216 213 226 230 214 201 212 220 229 238 230 235 244 243 238 229 226 202 201 225 207 219 235 260 246 210 219 229 231 278 195 188 245 190 218 203 200 202 194 193
196 208 213 212 229 232 226 223 220 228 217 220 225 229 232 237 232 240 233 231 229 234 238 213 231 229 255 237 247 264 234 220 240 222 182 236 182 222 207 201 198 196 191
209 217 220 217 224 228 227 221 224 216 236 238 242 242 229 243 235 225 236 238 236 240 250 238 238 267 270 297 245 263 263 265 278 250 201 225 179 217 181 219 203 195 190
183 197 210 224 218 233 213 225 212 205 233 241 245 312 259 239 76 310 246 267 351 13 27 12 348 319 301 287 269 278 267 262 268 253 204 238 213 194 189 212 204 215 206
185 169 197 199 188 183 154 189 190 161 185 155 89 73 41 93 83 36 94 89 3 4 348 339 334 338 347 347 354 271 274 259 265 278 217 210 171 168 237 216 194 192 202